Location: Austin
(30.3000°N, 97.7500°W)
Time: 22:00:54
(UTC-06:00)

Cosmos 1980 Rocket - Pass Details

Date: 03 December 2025
Orbit: 829 x 848 km, 71.0° (Epoch: 07 December)

Event Time Altitude Azimuth Distance (km) Brightness Sun altitude
Exits shadow 06:15:46 - 341° (NNW) 3,413 5.0 -12.0°
Rises 06:15:51 0° 341° (NNW) 3,378 5.0 -12.0°
Reaches altitude 10° 06:18:18 10° 343° (NNW) 2,439 4.3 -11.5°
Maximum altitude 06:23:54 80° 71° (ENE) 845 2.3 -10.4°
Drops below altitude 10° 06:29:27 10° 158° (SSE) 2,423 5.2 -9.2°
Sets 06:31:52 0° 159° (SSE) 3,353 6.0 -8.8°
